Regional Weather Roundup
Issued by NWS

Home | Current Version | Previous Version | Text Only | Print | Product List | Glossary Off
Versions: 1 2 3 4 5 6 7 8 9 10 11 12 13 14 15 16 17 18 19 20 21 22 23 24 25 26 27 28 29 30 31 32 33 34 35 36 37 38 39 40 41 42 43 44 45 46 47 48 49 50

000
ASUS43 KFSD 200802
RWRSD

WEATHER ROUNDUP FOR SOUTH DAKOTA
NATIONAL WEATHER SERVICE SIOUX FALLS SD
200 AM CST SAT JAN 20 2018

NOTE: "FAIR" INDICATES FEW OR NO CLOUDS BELOW 12,000 FEET WITH NO
SIGNIFICANT WEATHER AND/OR OBSTRUCTIONS TO VISIBILITY.


SDZ001>005-009-010-012>017-200900-
NORTHWEST AND NORTH CENTRAL SOUTH DAKOTA

CITY           SKY/WX    TMP DP  RH WIND       PRES   REMARKS
BUFFALO          N/A     35  34  96 W7        29.74R WCI  29
FAITH            N/A     35  33  92 SW3       29.79S
MOBRIDGE       MOCLDY    34  30  85 NW5       29.76R WCI  30
$$

SDZ012>016-024>037-041>051-057-063-072>074-200900-
SOUTHWEST AND SOUTH CENTRAL SOUTH DAKOTA

CITY           SKY/WX    TMP DP  RH WIND       PRES   REMARKS
RAPID CTY ARPT CLOUDY    34  30  85 N7        29.79F WCI  28
PIERRE         CLOUDY    32  30  92 W9        29.81R WCI  24
CUSTER         CLOUDY    30  24  78 N5        29.75F WCI  25
ELLSWORTH AFB  CLOUDY    34  34 100 CALM      29.79
PHILIP         CLOUDY    32  30  92 W3        29.82F
PINE RIDGE     PTCLDY    25  24  96 E6        29.78F WCI  18
SPEARFISH      LGT SNOW  32  32 100 CALM      29.80S
WINNER         FAIR      33  29  85 W5        29.81S WCI  29
$$

SDZ004>011-016>023-039-040-200900-
NORTHEAST SOUTH DAKOTA

CITY           SKY/WX    TMP DP  RH WIND       PRES   REMARKS
ABERDEEN       PTCLDY    21  19  92 CALM      29.77S
WATERTOWN      PTCLDY    25  25 100 CALM      29.75S
BROOKINGS      PTCLDY    30  28  92 N3        29.76S
SISSETON         N/A     29  24  82 CALM      29.74R
$$

SDZ017-020-022-023-036>040-048>070-200900-
SOUTHEAST SOUTH DAKOTA

CITY           SKY/WX    TMP DP  RH WIND       PRES   REMARKS
SIOUX FALLS    CLOUDY    26  25  96 CALM      29.77R
HURON          MOCLDY    30  27  88 W3        29.79R
CHAMBERLAIN    PTCLDY    32  32  99 CALM      29.82R
MITCHELL       MOCLDY    31  29  92 W3        29.80S
YANKTON        CLOUDY    32  29  88 NW12      29.79R WCI  23
$$

ABBREVIATIONS USED IN REMARKS
   TC - TEMPERATURE IN CELSIUS
  WCI - WIND CHILL INDEX
   HX - HEAT INDEX
  VSB - VISIBILITY




USA.gov is the U.S. government's official web portal to all federal, state and local government web resources and services.